Location: Sternwarte Hubelmatt
(47.0367°N, 8.3053°E)
Time: 02:57:43
(UTC+02:00)

UWE-3 - Pass Details

Date: 28 April 2024
Orbit: 569 x 652 km, 97.8° (Epoch: 23 May)

Event Time Altitude Azimuth Distance (km) Brightness Sun altitude
Rises 02:50:04 0° 30° (NNE) 2,884 ? -25.8°
Reaches altitude 10° 02:53:05 10° 54° (NE) 1,991 ? -25.6°
Maximum altitude 02:55:40 15° 90° (E) 1,672 ? -25.4°
Enters shadow 02:57:15 13° 115° (ESE) 1,808 ? -25.3°
